Weather History for Fort Leonard Wood, MO

Change the Weather History Date:

Wednesday, July 3, 2013

  Actual Average Record
Temperature  
Mean Temperature 68 °F -  
Max Temperature 81 °F 84 °F 98 °F (2005)
Min Temperature 54 °F 68 °F 54 °F (2013)
Cooling Degree Days 2    
Growing Degree Days 18 (Base 50)    
Moisture  
Dew Point 59 °F    
Average Humidity 73    
Maximum Humidity 100    
Minimum Humidity 43    
Precipitation  
Precipitation 0.00 in - - ()
Sea Level Pressure  
Sea Level Pressure 30.06 in    
Wind  
Wind Speed 3 mph (SSW)    
Max Wind Speed 7 mph    
Max Gust Speed -    
Visibility 10 miles    
Events      
Averages and records for this station are not official NWS values.
T = Trace of Precipitation, MM = Missing Value Source: NWS Daily Summary

Daily Weather History Graph

Daily Weather History Graph

Search for Another Location

Airport:

Trip Planner

Search our weather history database for the weather conditions in past years. The results will help you decide how hot, cold, wet, or windy it might be!

Date:

Astronomy

Jul. 03, 2013 Rise Set
Actual Time 5:51 AM CDT 8:34 PM CDT
Civil Twilight 5:20 AM CDT 9:05 PM CDT
Nautical Twilight 4:41 AM CDT 9:43 PM CDT
Astronomical Twilight 3:57 AM CDT 10:27 PM CDT
Moon 2:27 AM CDT (7/3) 4:46 PM CDT (7/3)
Length of Visible Light 15h 44m
Length of Day
14h 42m
Waning Crescent, 18% of the Moon is Illuminated
Jul 3
Waning Crescent
Jul 8
New
Jul 15
First Quarter
Jul 22
Full
Jul 29
Last Quarter

Hourly Weather History & Observations

Time (CDT) Temp. Heat Index Dew Point Humidity Pressure Visibility Wind Dir Wind Speed Gust Speed Precip Events Conditions
12:58 AM 58.6 °F - 57.2 °F 95% 30.06 in 10.0 mi South 3.5 mph - N/A   Clear
1:58 AM 57.4 °F - 56.5 °F 97% 30.05 in 10.0 mi South 3.5 mph - N/A   Clear
2:58 AM 57.0 °F - 56.1 °F 97% 30.05 in 10.0 mi SSW 3.5 mph - N/A   Clear
3:58 AM 56.8 °F - 56.3 °F 98% 30.05 in 10.0 mi SSW 3.5 mph - N/A   Clear
4:58 AM 56.7 °F - 56.1 °F 98% 30.06 in 10.0 mi South 3.5 mph - N/A   Clear
5:58 AM 54.9 °F - 54.9 °F 100% 30.07 in 10.0 mi South 2.3 mph - N/A   Clear
6:58 AM 58.3 °F - 57.2 °F 96% 30.07 in 10.0 mi SSW 2.3 mph - N/A   Clear
7:58 AM 62.4 °F - 58.3 °F 86% 30.09 in 10.0 mi Variable 4.6 mph - N/A   Clear
8:58 AM 67.5 °F - 59.9 °F 77% 30.11 in 10.0 mi Variable 4.6 mph - N/A   Clear
9:58 AM 71.8 °F - 60.4 °F 67% 30.10 in 10.0 mi WSW 5.8 mph - N/A   Clear
10:58 AM 75.6 °F - 60.1 °F 59% 30.10 in 10.0 mi West 6.9 mph - N/A   Clear
11:58 AM 77.5 °F - 54.9 °F 45% 30.10 in 10.0 mi NW 6.9 mph - N/A   Partly Cloudy
12:58 PM 79.0 °F - 57.7 °F 48% 30.08 in 10.0 mi Variable 3.5 mph - N/A   Clear
1:58 PM 79.7 °F - 56.3 °F 44% 30.07 in 10.0 mi NNW 2.3 mph - N/A   Partly Cloudy
2:58 PM 80.4 °F 80.6 °F 56.5 °F 44% 30.06 in 10.0 mi Variable 1.2 mph - N/A   Clear
3:58 PM 80.8 °F 80.8 °F 56.7 °F 43% 30.05 in 10.0 mi SSW 2.3 mph - N/A   Scattered Clouds
4:58 PM 79.7 °F - 59.0 °F 49% 30.04 in 10.0 mi SSW 3.5 mph - N/A   Partly Cloudy
5:58 PM 81.0 °F 80.9 °F 56.3 °F 43% 30.03 in 10.0 mi Calm Calm - N/A   Clear
6:58 PM 79.7 °F - 56.8 °F 45% 30.02 in 10.0 mi South 3.5 mph - N/A   Clear
7:58 PM 75.9 °F - 65.3 °F 70% 30.04 in 10.0 mi South 1.2 mph - N/A   Clear
8:58 PM 69.6 °F - 63.7 °F 81% 30.04 in 10.0 mi SE 3.5 mph - N/A   Clear
9:58 PM 65.8 °F - 63.5 °F 92% 30.05 in 10.0 mi SSE 3.5 mph - N/A   Clear
10:58 PM 65.8 °F - 64.2 °F 94% 30.06 in 10.0 mi SSE 4.6 mph - N/A   Scattered Clouds
11:58 PM 63.9 °F - 62.2 °F 94% 30.07 in 10.0 mi West 1.2 mph - N/A   Clear